| time (UTC) | temp C | wind direction | speed KPH | gust KPH | rain 1hr cm | rain 24hr cm | rain mn cm | humidity % | barometer mb |
| 20260505201557 | 12 | 16 | 14.5 | 30.6 | 0.00 | 0.71 | 0.71 | 93 | 1007.2 |
| 20260505201056 | 12 | 24 | 12.9 | 24.1 | 0.00 | 0.71 | 0.71 | 93 | 1007.2 |
| 20260505200600 | 12 | 347 | 12.9 | 24.1 | 0.00 | 0.71 | 0.71 | 93 | 1007.4 |
| 20260505200054 | 12 | 352 | 8.0 | 22.5 | 0.00 | 0.71 | 0.71 | 94 | 1007.4 |
| 20260505195558 | 12 | 27 | 12.9 | 22.5 | 0.00 | 0.71 | 0.71 | 93 | 1007.2 |
| 20260505195056 | 12 | 48 | 11.3 | 27.4 | 0.00 | 0.71 | 0.71 | 93 | 1007.3 |
| 20260505194610 | 12 | 23 | 8.0 | 27.4 | 0.00 | 0.71 | 0.71 | 93 | 1007.5 |
| 20260505194059 | 12 | 346 | 19.3 | 27.4 | 0.00 | 0.71 | 0.71 | 93 | 1007.8 |
| 20260505193556 | 12 | 11 | 19.3 | 27.4 | 0.00 | 0.71 | 0.71 | 93 | 1007.9 |
| 20260505193054 | 12 | 16 | 16.1 | 25.7 | 0.00 | 0.71 | 0.71 | 93 | 1007.8 |
| 20260505192559 | 12 | 13 | 12.9 | 25.7 | 0.00 | 0.71 | 0.71 | 92 | 1007.7 |
| 20260505192056 | 12 | 17 | 12.9 | 27.4 | 0.00 | 0.71 | 0.71 | 93 | 1007.8 |
| 20260505191554 | 12 | 15 | 12.9 | 29.0 | 0.00 | 0.71 | 0.71 | 93 | 1007.7 |
| 20260505191057 | 12 | 19 | 14.5 | 29.0 | 0.03 | 0.71 | 0.71 | 92 | 1007.6 |
| 20260505190559 | 12 | 19 | 12.9 | 29.0 | 0.03 | 0.71 | 0.71 | 93 | 1007.4 |
| 20260505190057 | 12 | 16 | 16.1 | 29.0 | 0.03 | 0.71 | 0.71 | 93 | 1007.0 |
| 20260505185559 | 12 | 60 | 16.1 | 27.4 | 0.03 | 0.71 | 0.71 | 93 | 1006.8 |
| 20260505185056 | 12 | 19 | 17.7 | 27.4 | 0.03 | 0.71 | 0.71 | 93 | 1007.1 |
| 20260505184554 | 12 | 346 | 17.7 | 25.7 | 0.03 | 0.71 | 0.71 | 93 | 1007.4 |
| 20260505184056 | 12 | 323 | 14.5 | 29.0 | 0.03 | 0.71 | 0.71 | 93 | 1007.5 |
| 20260505183557 | 12 | 16 | 12.9 | 29.0 | 0.03 | 0.71 | 0.71 | 93 | 1007.3 |
| 20260505183102 | 13 | 14 | 16.1 | 32.2 | 0.03 | 0.71 | 0.71 | 93 | 1007.2 |
| 20260505182556 | 13 | 5 | 16.1 | 32.2 | 0.03 | 0.71 | 0.71 | 92 | 1007.3 |
| 20260505182056 | 13 | 9 | 17.7 | 32.2 | 0.03 | 0.71 | 0.71 | 92 | 1007.3 |
| 20260505181554 | 13 | 11 | 20.9 | 29.0 | 0.03 | 0.71 | 0.71 | 91 | 1007.3 |
| 20260505181056 | 13 | 34 | 16.1 | 27.4 | 0.00 | 0.69 | 0.69 | 92 | 1007.3 |
| 20260505180556 | 13 | 32 | 16.1 | 25.7 | 0.00 | 0.69 | 0.69 | 91 | 1007.1 |
| 20260505180054 | 14 | 5 | 11.3 | 22.5 | 0.00 | 0.69 | 0.69 | 91 | 1007.1 |
| 20260505175556 | 14 | 15 | 12.9 | 20.9 | 0.00 | 0.69 | 0.69 | 91 | 1007.0 |
| 20260505175057 | 14 | 9 | 11.3 | 22.5 | 0.00 | 0.69 | 0.69 | 91 | 1007.0 |
| 20260505174558 | 15 | 17 | 14.5 | 22.5 | 0.00 | 0.69 | 0.69 | 90 | 1007.0 |
| 20260505174056 | 15 | 9 | 14.5 | 24.1 | 0.00 | 0.69 | 0.69 | 89 | 1006.7 |
| 20260505173559 | 15 | 88 | 16.1 | 24.1 | 0.00 | 0.69 | 0.69 | 88 | 1006.5 |
| 20260505173056 | 15 | 5 | 8.0 | 24.1 | 0.00 | 0.69 | 0.69 | 88 | 1006.6 |
| 20260505172556 | 16 | 360 | 9.7 | 22.5 | 0.00 | 0.69 | 0.69 | 87 | 1006.8 |
| 20260505172056 | 16 | 360 | 12.9 | 22.5 | 0.00 | 0.69 | 0.69 | 87 | 1007.0 |
| 20260505171556 | 16 | 38 | 11.3 | 25.7 | 0.00 | 0.69 | 0.69 | 88 | 1006.6 |
| 20260505171058 | 16 | 32 | 9.7 | 25.7 | 0.00 | 0.69 | 0.69 | 88 | 1006.6 |
| 20260505170557 | 16 | 360 | 14.5 | 25.7 | 0.00 | 0.69 | 0.69 | 88 | 1006.5 |
| 20260505170054 | 16 | 13 | 16.1 | 24.1 | 0.00 | 0.69 | 0.69 | 87 | 1006.4 |
| 20260505165556 | 16 | 13 | 8.0 | 20.9 | 0.00 | 0.69 | 0.69 | 88 | 1006.4 |
| 20260505165057 | 16 | 352 | 9.7 | 22.5 | 0.00 | 0.69 | 0.69 | 88 | 1006.6 |
| 20260505164602 | 16 | 47 | 11.3 | 22.5 | 0.00 | 0.69 | 0.69 | 88 | 1006.5 |
| 20260505164056 | 17 | 355 | 11.3 | 20.9 | 0.00 | 0.69 | 0.69 | 87 | 1006.5 |
| 20260505163556 | 17 | 13 | 9.7 | 20.9 | 0.00 | 0.69 | 0.69 | 87 | 1006.5 |
| 20260505163102 | 18 | 35 | 11.3 | 20.9 | 0.00 | 0.69 | 0.69 | 88 | 1006.5 |
| 20260505162559 | 18 | 41 | 8.0 | 16.1 | 0.00 | 0.69 | 0.69 | 87 | 1006.6 |
| 20260505162056 | 18 | 37 | 4.8 | 17.7 | 0.00 | 0.69 | 0.69 | 87 | 1006.6 |
| 20260505161555 | 18 | 117 | 9.7 | 17.7 | 0.00 | 0.69 | 0.69 | 86 | 1006.6 |
| 20260505161057 | 18 | 67 | 11.3 | 17.7 | 0.00 | 0.69 | 0.69 | 86 | 1006.7 |
| 20260505160558 | 18 | 81 | 11.3 | 16.1 | 0.00 | 0.69 | 0.69 | 86 | 1006.6 |
| 20260505153114 | 17 | 109 | 12.9 | 20.9 | 0.00 | 0.69 | 0.69 | 88 | 1005.8 |
| 20260505152557 | 17 | 101 | 12.9 | 22.5 | 0.00 | 0.69 | 0.69 | 90 | 1005.9 |
| 20260505152056 | 17 | 86 | 12.9 | 22.5 | 0.00 | 0.69 | 0.69 | 89 | 1006.0 |
| 20260505151601 | 17 | 63 | 12.9 | 20.9 | 0.00 | 0.69 | 0.69 | 90 | 1006.0 |
| 20260505151056 | 17 | 49 | 8.0 | 20.9 | 0.00 | 0.69 | 0.69 | 92 | 1006.0 |
| 20260505150559 | 17 | 98 | 8.0 | 22.5 | 0.00 | 0.69 | 0.69 | 91 | 1006.1 |
| 20260505140556 | 16 | 90 | 3.2 | 11.3 | 0.00 | 0.69 | 0.69 | 94 | 1006.4 |
| 20260505140106 | 16 | 80 | 3.2 | 9.7 | 0.00 | 0.69 | 0.69 | 94 | 1006.4 |
| 20260505124558 | 15 | 0 | 0.0 | 8.0 | 0.00 | 0.69 | 0.69 | 95 | 1006.0 |
| 20260505124058 | 15 | 0 | 3.2 | 8.0 | 0.00 | 0.69 | 0.69 | 95 | 1006.1 |
| 20260505123556 | 15 | 34 | 3.2 | 8.0 | 0.00 | 0.69 | 0.69 | 95 | 1005.9 |
| 20260505123106 | 15 | 355 | 0.0 | 8.0 | 0.00 | 0.69 | 0.69 | 95 | 1005.9 |
| 20260505122559 | 15 | 30 | 1.6 | 8.0 | 0.00 | 0.69 | 0.69 | 95 | 1005.9 |
| 20260505122056 | 15 | 0 | 0.0 | 6.4 | 0.00 | 0.69 | 0.69 | 95 | 1005.9 |
| 20260505121555 | 15 | 0 | 0.0 | 12.9 | 0.00 | 0.69 | 0.69 | 95 | 1005.8 |
| 20260505121056 | 15 | 33 | 1.6 | 12.9 | 0.00 | 0.69 | 0.69 | 95 | 1005.9 |
| 20260505120556 | 15 | 22 | 6.4 | 11.3 | 0.00 | 0.69 | 0.69 | 95 | 1005.7 |
| 20260505120058 | 15 | 350 | 1.6 | 16.1 | 0.00 | 0.69 | 0.69 | 95 | 1005.9 |
| 20260505115600 | 15 | 349 | 3.2 | 16.1 | 0.00 | 0.69 | 0.69 | 95 | 1005.9 |
| 20260505115057 | 15 | 45 | 4.8 | 16.1 | 0.00 | 0.69 | 0.69 | 95 | 1005.6 |
| 20260505114558 | 15 | 9 | 8.0 | 19.3 | 0.00 | 0.69 | 0.69 | 95 | 1005.6 |
| 20260505114059 | 15 | 360 | 9.7 | 19.3 | 0.00 | 0.69 | 0.69 | 95 | 1005.4 |
| 20260505113558 | 15 | 333 | 8.0 | 20.9 | 0.00 | 0.69 | 0.69 | 95 | 1005.4 |
| 20260505113100 | 15 | 13 | 11.3 | 20.9 | 0.00 | 0.69 | 0.69 | 96 | 1005.2 |
| 20260505112556 | 15 | 10 | 11.3 | 17.7 | 0.00 | 0.69 | 0.69 | 96 | 1005.3 |
| 20260505112056 | 15 | 348 | 6.4 | 12.9 | 0.00 | 0.69 | 0.69 | 96 | 1005.1 |
| 20260505111559 | 15 | 284 | 4.8 | 12.9 | 0.03 | 0.69 | 0.69 | 96 | 1005.0 |
| 20260505111058 | 15 | 267 | 4.8 | 12.9 | 0.03 | 0.69 | 0.69 | 96 | 1004.9 |
| 20260505110557 | 15 | 240 | 4.8 | 12.9 | 0.03 | 0.69 | 0.69 | 96 | 1004.6 |
| 20260505102100 | 15 | 175 | 11.3 | 16.1 | 0.08 | 0.69 | 0.69 | 96 | 1005.0 |
| 20260505101602 | 15 | 188 | 4.8 | 9.7 | 0.05 | 0.66 | 0.66 | 96 | 1005.2 |
| 20260505101057 | 15 | 166 | 3.2 | 9.7 | 0.05 | 0.66 | 0.66 | 96 | 1005.2 |
| 20260505100557 | 15 | 185 | 6.4 | 9.7 | 0.10 | 0.66 | 0.66 | 96 | 1005.3 |
| 20260505100059 | 15 | 152 | 0.0 | 8.0 | 0.13 | 0.66 | 0.66 | 96 | 1005.4 |
| 20260505095559 | 15 | 162 | 3.2 | 8.0 | 0.15 | 0.66 | 0.66 | 96 | 1005.3 |
| 20260505095058 | 15 | 183 | 3.2 | 12.9 | 0.15 | 0.64 | 0.64 | 96 | 1005.5 |
| 20260505094606 | 15 | 177 | 4.8 | 14.5 | 0.18 | 0.64 | 0.64 | 96 | 1005.4 |
| 20260505094057 | 15 | 185 | 9.7 | 14.5 | 0.23 | 0.64 | 0.64 | 95 | 1005.6 |
| 20260505093557 | 15 | 175 | 1.6 | 6.4 | 0.25 | 0.64 | 0.64 | 95 | 1005.8 |
| 20260505093058 | 15 | 0 | 3.2 | 9.7 | 0.28 | 0.61 | 0.61 | 95 | 1005.9 |
| 20260505092556 | 15 | 142 | 3.2 | 14.5 | 0.33 | 0.61 | 0.61 | 94 | 1006.0 |
| 20260505092056 | 15 | 247 | 8.0 | 14.5 | 0.36 | 0.61 | 0.61 | 94 | 1006.4 |
| 20260505091600 | 16 | 221 | 6.4 | 11.3 | 0.38 | 0.61 | 0.61 | 93 | 1006.5 |
| 20260505091055 | 16 | 197 | 3.2 | 14.5 | 0.41 | 0.61 | 0.61 | 93 | 1006.3 |
| 20260505090556 | 16 | 0 | 1.6 | 16.1 | 0.41 | 0.56 | 0.56 | 93 | 1006.1 |
| 20260505090101 | 16 | 251 | 8.0 | 20.9 | 0.38 | 0.51 | 0.51 | 93 | 1006.2 |
| 20260505085556 | 16 | 292 | 9.7 | 25.7 | 0.43 | 0.51 | 0.51 | 93 | 1006.1 |
| 20260505085100 | 16 | 291 | 14.5 | 25.7 | 0.43 | 0.48 | 0.48 | 93 | 1006.3 |
| 20260505084555 | 16 | 360 | 12.9 | 24.1 | 0.43 | 0.46 | 0.46 | 92 | 1006.3 |
| 20260505084056 | 16 | 265 | 9.7 | 17.7 | 0.38 | 0.41 | 0.41 | 92 | 1006.3 |
| 20260505083556 | 16 | 281 | 8.0 | 16.1 | 0.38 | 0.38 | 0.38 | 91 | 1006.2 |
| 20260505083056 | 16 | 263 | 9.7 | 19.3 | 0.33 | 0.33 | 0.33 | 91 | 1006.2 |
| 20260505082556 | 16 | 255 | 8.0 | 22.5 | 0.28 | 0.28 | 0.28 | 90 | 1006.0 |
| 20260505082056 | 16 | 223 | 12.9 | 32.2 | 0.25 | 0.25 | 0.25 | 90 | 1006.0 |
| 20260505081603 | 16 | 247 | 16.1 | 32.2 | 0.23 | 0.23 | 0.23 | 89 | 1006.1 |
| 20260505081057 | 16 | 275 | 16.1 | 24.1 | 0.18 | 0.18 | 0.18 | 88 | 1006.0 |
| 20260505080556 | 16 | 360 | 11.3 | 24.1 | 0.15 | 0.15 | 0.15 | 87 | 1006.1 |
| 20260505080055 | 16 | 238 | 12.9 | 24.1 | 0.13 | 0.13 | 0.13 | 86 | 1006.2 |
| 20260505075600 | 16 | 234 | 14.5 | 24.1 | 0.08 | 0.08 | 0.08 | 85 | 1006.1 |
| 20260505075056 | 16 | 251 | 16.1 | 24.1 | 0.05 | 0.05 | 0.05 | 84 | 1006.2 |
| 20260505074609 | 16 | 230 | 12.9 | 17.7 | 0.03 | 0.03 | 0.03 | 84 | 1006.0 |
| 20260505074056 | 17 | 239 | 11.3 | 14.5 | 0.03 | 0.03 | 0.03 | 81 | 1005.6 |
| 20260505073556 | 17 | 250 | 8.0 | 17.7 | 0.00 | 0.00 | 0.00 | 81 | 1005.7 |
| 20260505073057 | 17 | 224 | 11.3 | 17.7 | 0.00 | 0.00 | 0.00 | 80 | 1005.7 |
| 20260505072556 | 17 | 246 | 9.7 | 14.5 | 0.00 | 0.00 | 0.00 | 79 | 1005.9 |
| 20260505072056 | 17 | 232 | 8.0 | 12.9 | 0.00 | 0.00 | 0.00 | 78 | 1005.5 |
| 20260505071556 | 17 | 211 | 8.0 | 12.9 | 0.00 | 0.00 | 0.00 | 77 | 1005.5 |
| 20260505071056 | 17 | 208 | 4.8 | 8.0 | 0.00 | 0.00 | 0.00 | 77 | 1005.5 |
| 20260505070557 | 17 | 239 | 4.8 | 8.0 | 0.00 | 0.00 | 0.00 | 76 | 1005.5 |
| 20260505070056 | 17 | 163 | 1.6 | 6.4 | 0.00 | 0.00 | 0.00 | 75 | 1005.5 |
| 20260505065557 | 17 | 182 | 1.6 | 9.7 | 0.00 | 0.00 | 0.00 | 75 | 1005.5 |
| 20260505065057 | 17 | 156 | 3.2 | 9.7 | 0.00 | 0.00 | 0.00 | 75 | 1005.8 |
| 20260505064556 | 17 | 182 | 4.8 | 8.0 | 0.00 | 0.00 | 0.00 | 75 | 1005.8 |
| 20260505064057 | 17 | 173 | 3.2 | 9.7 | 0.00 | 0.00 | 0.00 | 75 | 1006.0 |
| 20260505063557 | 17 | 180 | 6.4 | 11.3 | 0.00 | 0.00 | 0.00 | 75 | 1006.0 |
| 20260505063100 | 17 | 174 | 6.4 | 12.9 | 0.00 | 0.00 | 0.00 | 75 | 1006.0 |
| 20260505062556 | 17 | 180 | 6.4 | 12.9 | 0.00 | 0.00 | 0.00 | 75 | 1006.1 |
| 20260505062055 | 17 | 171 | 6.4 | 12.9 | 0.00 | 0.00 | 0.00 | 75 | 1006.1 |
| 20260505061625 | 17 | 171 | 6.4 | 11.3 | 0.00 | 0.00 | 0.00 | 74 | 1006.2 |
| 20260505061057 | 18 | 175 | 6.4 | 11.3 | 0.00 | 0.00 | 0.00 | 74 | 1006.3 |
| 20260505060558 | 17 | 182 | 6.4 | 11.3 | 0.00 | 0.00 | 0.00 | 74 | 1006.3 |
| 20260505060059 | 17 | 200 | 4.8 | 9.7 | 0.00 | 0.00 | 0.00 | 74 | 1006.4 |
| 20260505055557 | 18 | 205 | 4.8 | 8.0 | 0.00 | 0.00 | 0.00 | 74 | 1006.4 |
| 20260505055057 | 18 | 218 | 4.8 | 6.4 | 0.00 | 0.00 | 0.00 | 74 | 1006.3 |
| 20260505054618 | 18 | 209 | 3.2 | 6.4 | 0.00 | 0.00 | 0.00 | 74 | 1006.2 |
| 20260505054057 | 18 | 202 | 1.6 | 6.4 | 0.00 | 0.00 | 0.00 | 74 | 1006.2 |
| 20260505053556 | 18 | 186 | 1.6 | 6.4 | 0.00 | 0.00 | 0.00 | 73 | 1006.2 |
| 20260505053055 | 18 | 178 | 3.2 | 6.4 | 0.00 | 0.00 | 0.00 | 73 | 1006.1 |
| 20260505052556 | 18 | 171 | 3.2 | 6.4 | 0.00 | 0.00 | 0.00 | 73 | 1006.2 |
| 20260505052056 | 18 | 162 | 3.2 | 6.4 | 0.00 | 0.00 | 0.00 | 72 | 1006.4 |
| 20260505051555 | 18 | 160 | 3.2 | 6.4 | 0.00 | 0.00 | 0.00 | 72 | 1006.4 |
| 20260505051057 | 18 | 150 | 3.2 | 6.4 | 0.00 | 0.00 | 0.00 | 72 | 1006.4 |
| 20260505050556 | 18 | 144 | 3.2 | 6.4 | 0.00 | 0.00 | 0.00 | 72 | 1006.5 |
| 20260505041558 | 18 | 161 | 3.2 | 8.0 | 0.00 | 0.00 | 0.00 | 71 | 1006.9 |
| 20260505041057 | 18 | 179 | 3.2 | 11.3 | 0.00 | 0.00 | 0.00 | 70 | 1007.1 |
| 20260505040557 | 19 | 173 | 3.2 | 11.3 | 0.00 | 0.00 | 0.00 | 70 | 1006.9 |
| 20260505035557 | 19 | 148 | 6.4 | 14.5 | 0.00 | 0.00 | 0.00 | 70 | 1007.0 |
| 20260505035100 | 19 | 163 | 8.0 | 14.5 | 0.00 | 0.00 | 0.00 | 70 | 1007.0 |
| 20260505034556 | 19 | 176 | 8.0 | 16.1 | 0.00 | 0.00 | 0.00 | 69 | 1007.0 |
| 20260505034056 | 19 | 174 | 9.7 | 16.1 | 0.00 | 0.00 | 0.00 | 69 | 1007.1 |
| 20260505033556 | 19 | 182 | 8.0 | 16.1 | 0.00 | 0.00 | 0.00 | 69 | 1007.1 |
| 20260505033058 | 19 | 189 | 8.0 | 16.1 | 0.00 | 0.00 | 0.00 | 68 | 1007.1 |
| 20260505032555 | 20 | 176 | 8.0 | 14.5 | 0.00 | 0.00 | 0.00 | 68 | 1007.3 |
| 20260505032056 | 20 | 171 | 8.0 | 14.5 | 0.00 | 0.00 | 0.00 | 68 | 1007.2 |
| 20260505031615 | 20 | 165 | 8.0 | 11.3 | 0.00 | 0.00 | 0.00 | 67 | 1007.2 |
| 20260505031056 | 20 | 178 | 4.8 | 11.3 | 0.00 | 0.00 | 0.00 | 66 | 1007.3 |
| 20260505030559 | 20 | 182 | 4.8 | 14.5 | 0.00 | 0.00 | 0.00 | 66 | 1007.3 |
| 20260505030104 | 20 | 176 | 8.0 | 14.5 | 0.00 | 0.00 | 0.00 | 65 | 1007.2 |
| 20260505025557 | 20 | 160 | 8.0 | 14.5 | 0.00 | 0.00 | 0.00 | 65 | 1007.2 |
| 20260505025057 | 20 | 190 | 9.7 | 14.5 | 0.00 | 0.00 | 0.00 | 65 | 1007.1 |
| 20260505024610 | 20 | 182 | 8.0 | 14.5 | 0.00 | 0.00 | 0.00 | 65 | 1007.1 |
| 20260505024056 | 21 | 175 | 4.8 | 12.9 | 0.00 | 0.00 | 0.00 | 64 | 1007.1 |
| 20260505023556 | 21 | 195 | 6.4 | 12.9 | 0.00 | 0.00 | 0.00 | 64 | 1007.0 |
| 20260505023056 | 21 | 181 | 8.0 | 12.9 | 0.00 | 0.00 | 0.00 | 63 | 1006.9 |
| 20260505022556 | 21 | 169 | 6.4 | 12.9 | 0.00 | 0.00 | 0.00 | 63 | 1006.7 |
| 20260505022056 | 21 | 207 | 6.4 | 14.5 | 0.00 | 0.00 | 0.00 | 62 | 1006.6 |
| 20260505021612 | 21 | 203 | 8.0 | 14.5 | 0.00 | 0.00 | 0.00 | 62 | 1006.5 |
| 20260505021057 | 21 | 186 | 6.4 | 16.1 | 0.00 | 0.00 | 0.00 | 62 | 1006.4 |
| 20260505020557 | 21 | 218 | 8.0 | 16.1 | 0.00 | 0.00 | 0.00 | 61 | 1006.3 |
| 20260505020054 | 22 | 185 | 9.7 | 14.5 | 0.00 | 0.00 | 0.00 | 60 | 1006.3 |
| 20260505015556 | 22 | 183 | 8.0 | 16.1 | 0.00 | 0.00 | 0.00 | 60 | 1006.3 |
| 20260505015056 | 22 | 232 | 8.0 | 19.3 | 0.00 | 0.00 | 0.00 | 60 | 1006.2 |
| 20260505014558 | 22 | 220 | 11.3 | 25.7 | 0.00 | 0.00 | 0.00 | 59 | 1006.3 |
| 20260505014056 | 22 | 196 | 14.5 | 25.7 | 0.00 | 0.00 | 0.00 | 59 | 1006.1 |
| 20260505013558 | 22 | 198 | 11.3 | 24.1 | 0.00 | 0.00 | 0.00 | 59 | 1006.1 |
| 20260505013057 | 22 | 196 | 12.9 | 24.1 | 0.00 | 0.00 | 0.00 | 58 | 1006.0 |
| 20260505012556 | 22 | 223 | 9.7 | 20.9 | 0.00 | 0.00 | 0.00 | 59 | 1005.9 |
| 20260505012058 | 22 | 178 | 11.3 | 17.7 | 0.00 | 0.00 | 0.00 | 58 | 1005.9 |
| 20260505011601 | 22 | 180 | 9.7 | 17.7 | 0.00 | 0.00 | 0.00 | 58 | 1005.8 |
| 20260505011057 | 22 | 196 | 8.0 | 17.7 | 0.00 | 0.00 | 0.00 | 58 | 1005.6 |
| 20260505010556 | 22 | 190 | 8.0 | 22.5 | 0.00 | 0.00 | 0.00 | 58 | 1005.5 |
| 20260505010058 | 23 | 196 | 9.7 | 22.5 | 0.00 | 0.00 | 0.00 | 57 | 1005.5 |
| 20260505005556 | 23 | 227 | 11.3 | 20.9 | 0.00 | 0.00 | 0.00 | 57 | 1005.4 |
| 20260505005056 | 23 | 201 | 9.7 | 19.3 | 0.00 | 0.00 | 0.00 | 57 | 1005.3 |
| 20260505004559 | 23 | 165 | 9.7 | 17.7 | 0.00 | 0.00 | 0.00 | 56 | 1005.4 |
| 20260505004056 | 23 | 206 | 9.7 | 16.1 | 0.00 | 0.00 | 0.00 | 56 | 1005.2 |
| 20260505003555 | 23 | 186 | 9.7 | 17.7 | 0.00 | 0.00 | 0.00 | 55 | 1005.3 |
| 20260505003058 | 23 | 207 | 6.4 | 17.7 | 0.00 | 0.00 | 0.00 | 55 | 1005.1 |
| 20260505002557 | 23 | 163 | 11.3 | 20.9 | 0.00 | 0.00 | 0.00 | 54 | 1005.0 |
| 20260505002057 | 23 | 216 | 11.3 | 27.4 | 0.00 | 0.00 | 0.00 | 54 | 1005.3 |
| 20260505001558 | 23 | 200 | 14.5 | 27.4 | 0.00 | 0.00 | 0.00 | 53 | 1005.4 |
| 20260505001057 | 24 | 184 | 8.0 | 27.4 | 0.00 | 0.00 | 0.00 | 53 | 1005.4 |
| 20260505000556 | 24 | 184 | 12.9 | 27.4 | 0.00 | 0.00 | 0.00 | 53 | 1005.4 |
| 20260505000058 | 24 | 173 | 12.9 | 30.6 | 0.00 | 0.00 | 0.00 | 52 | 1005.0 |
| 20260504235556 | 24 | 171 | 14.5 | 30.6 | 0.00 | 0.00 | 0.00 | 52 | 1005.0 |
| 20260504235056 | 24 | 196 | 14.5 | 29.0 | 0.00 | 0.00 | 0.00 | 52 | 1005.0 |
| 20260504234556 | 24 | 186 | 14.5 | 35.4 | 0.00 | 0.00 | 0.00 | 52 | 1004.9 |
| 20260504234056 | 25 | 192 | 11.3 | 35.4 | 0.00 | 0.00 | 0.00 | 52 | 1004.9 |
| 20260504233557 | 25 | 222 | 16.1 | 35.4 | 0.00 | 0.00 | 0.00 | 51 | 1005.0 |
| 20260504233102 | 25 | 194 | 12.9 | 38.6 | 0.00 | 0.00 | 0.00 | 51 | 1005.1 |
| 20260504232557 | 25 | 226 | 16.1 | 38.6 | 0.00 | 0.00 | 0.00 | 50 | 1005.1 |
| 20260504232057 | 25 | 175 | 17.7 | 40.2 | 0.00 | 0.00 | 0.00 | 50 | 1005.2 |
| 20260504231555 | 25 | 194 | 20.9 | 40.2 | 0.00 | 0.00 | 0.00 | 49 | 1005.3 |
| 20260504231055 | 25 | 169 | 16.1 | 37.0 | 0.00 | 0.00 | 0.00 | 50 | 1005.3 |
| 20260504230556 | 25 | 220 | 22.5 | 37.0 | 0.00 | 0.00 | 0.00 | 49 | 1005.3 |
| 20260504230058 | 25 | 194 | 12.9 | 43.5 | 0.00 | 0.00 | 0.00 | 49 | 1005.4 |
| 20260504225556 | 25 | 188 | 22.5 | 43.5 | 0.00 | 0.00 | 0.00 | 49 | 1005.3 |
| 20260504225056 | 25 | 209 | 19.3 | 43.5 | 0.00 | 0.00 | 0.00 | 48 | 1005.3 |
| 20260504224555 | 25 | 184 | 19.3 | 37.0 | 0.00 | 0.00 | 0.00 | 47 | 1005.3 |
| 20260504224056 | 26 | 167 | 14.5 | 35.4 | 0.00 | 0.00 | 0.00 | 47 | 1005.2 |
| 20260504223556 | 25 | 217 | 20.9 | 38.6 | 0.00 | 0.00 | 0.00 | 47 | 1005.4 |
| 20260504223103 | 26 | 205 | 16.1 | 48.3 | 0.00 | 0.00 | 0.00 | 46 | 1005.4 |
| 20260504222558 | 26 | 219 | 16.1 | 48.3 | 0.00 | 0.00 | 0.00 | 47 | 1005.3 |
| 20260504222055 | 26 | 205 | 22.5 | 45.1 | 0.00 | 0.00 | 0.00 | 46 | 1005.3 |
| 20260504221606 | 26 | 207 | 22.5 | 43.5 | 0.00 | 0.00 | 0.00 | 46 | 1005.4 |
| 20260504221056 | 26 | 190 | 19.3 | 43.5 | 0.00 | 0.00 | 0.00 | 46 | 1005.3 |
| 20260504220557 | 26 | 184 | 22.5 | 43.5 | 0.00 | 0.00 | 0.00 | 46 | 1005.4 |
| 20260504220127 | 26 | 175 | 20.9 | 38.6 | 0.00 | 0.00 | 0.00 | 46 | 1005.4 |
| 20260504215557 | 26 | 164 | 19.3 | 38.6 | 0.00 | 0.00 | 0.00 | 46 | 1005.5 |
| 20260504215059 | 26 | 211 | 22.5 | 40.2 | 0.00 | 0.00 | 0.00 | 43 | 1005.5 |
| 20260504214555 | 26 | 217 | 20.9 | 48.3 | 0.00 | 0.00 | 0.00 | 44 | 1005.5 |
| 20260504214056 | 26 | 251 | 22.5 | 48.3 | 0.00 | 0.00 | 0.00 | 44 | 1005.5 |
| 20260504213556 | 26 | 225 | 19.3 | 40.2 | 0.00 | 0.00 | 0.00 | 43 | 1005.5 |
| 20260504213123 | 26 | 203 | 24.1 | 45.1 | 0.00 | 0.00 | 0.00 | 43 | 1005.6 |
| 20260504212558 | 26 | 230 | 27.4 | 49.9 | 0.00 | 0.00 | 0.00 | 44 | 1005.9 |
| 20260504212055 | 26 | 174 | 22.5 | 49.9 | 0.00 | 0.00 | 0.00 | 44 | 1005.6 |
| 20260504211555 | 26 | 196 | 20.9 | 40.2 | 0.00 | 0.00 | 0.00 | 46 | 1005.7 |
| 20260504211056 | 26 | 177 | 16.1 | 46.7 | 0.00 | 0.00 | 0.00 | 46 | 1005.8 |
| 20260504210557 | 26 | 207 | 22.5 | 46.7 | 0.00 | 0.00 | 0.00 | 46 | 1005.8 |
| 20260504205557 | 26 | 189 | 20.9 | 38.6 | 0.00 | 0.00 | 0.00 | 44 | 1006.0 |
| 20260504205058 | 26 | 194 | 19.3 | 38.6 | 0.00 | 0.00 | 0.00 | 46 | 1006.0 |
| 20260504204606 | 26 | 264 | 25.7 | 38.6 | 0.00 | 0.00 | 0.00 | 46 | 1006.0 |
| 20260504204056 | 26 | 229 | 22.5 | 48.3 | 0.00 | 0.00 | 0.00 | 46 | 1006.2 |
| 20260504203558 | 26 | 209 | 25.7 | 48.3 | 0.00 | 0.00 | 0.00 | 46 | 1006.1 |
| 20260504203058 | 26 | 243 | 24.1 | 43.5 | 0.00 | 0.00 | 0.00 | 46 | 1006.2 |
| 20260504202556 | 26 | 225 | 22.5 | 43.5 | 0.00 | 0.00 | 0.00 | 46 | 1006.4 |
| 20260504202056 | 26 | 184 | 30.6 | 43.5 | 0.00 | 0.00 | 0.00 | 46 | 1006.4 |